This is the latest recevied weather packets stored in our database for station/object AA7F. If no packets are shown the sender has not sent any weather packets the latest 10 day(s).
| Time | Temp. | Humidity | Pressure | Rain* | Wind** | Luminosity | Snow |
|---|---|---|---|---|---|---|---|
| 1777764043 | 27.22° C | 28% | 1011.4 hPa | 0 mm | - | 435 W/m² | - |
| 1777762529 | 27.22° C | 29% | 1011.9 hPa | 0 mm | - | 471 W/m² | - |
| 1777761317 | 27.22° C | 27% | 1011.9 hPa | 0 mm | - | 495 W/m² | - |
| 1777761015 | 27.22° C | 31% | 1012.1 hPa | 0 mm | - | 447 W/m² | - |
| 1777760409 | 27.22° C | 29% | 1012.3 hPa | 0 mm | - | 539 W/m² | - |
| 1777760104 | 27.22° C | 27% | 1012.4 hPa | 0 mm | - | 548 W/m² | - |
| 1777759804 | 27.78° C | 33% | 1012.2 hPa | 0 mm | - | 573 W/m² | - |
| 1777759497 | 27.78° C | 26% | 1012.5 hPa | 0 mm | - | 568 W/m² | - |
| 1777758891 | 27.78° C | 28% | 1012.6 hPa | 0 mm | - | 526 W/m² | - |
| 1777757679 | 27.22° C | 37% | 1012.9 hPa | 0 mm | - | 592 W/m² | - |
| 1777757378 | 27.22° C | 31% | 1012.9 hPa | 0 mm | - | 632 W/m² | - |
| 1777757076 | 27.22° C | 29% | 1012.9 hPa | 0 mm | - | 632 W/m² | - |
| 1777756773 | 27.22° C | 35% | 1013 hPa | 0 mm | - | 635 W/m² | - |
| 1777756469 | 26.67° C | 33% | 1013.2 hPa | 0 mm | - | 640 W/m² | - |
| 1777756166 | 26.67° C | 33% | 1013.2 hPa | 0 mm | - | 660 W/m² | - |
| 1777755863 | 26.67° C | 31% | 1013.2 hPa | 0 mm | - | 643 W/m² | - |
| 1777755560 | 26.67° C | 33% | 1013.5 hPa | 0 mm | - | 677 W/m² | - |
| 1777754954 | 26.11° C | 33% | 1013.3 hPa | 0 mm | - | 639 W/m² | - |
| 1777754348 | 26.11° C | 32% | 1013.4 hPa | 0 mm | - | 639 W/m² | - |
| 1777753741 | 25.56° C | 37% | 1013.6 hPa | 0 mm | - | 634 W/m² | - |
| 1777753136 | 25.56° C | 39% | 1013.7 hPa | 0 mm | - | 686 W/m² | - |
| 1777752529 | 24.44° C | 41% | 1014 hPa | 0 mm | - | 636 W/m² | - |
| 1777751923 | 24.44° C | 41% | 1014.1 hPa | 0 mm | - | 612 W/m² | - |
| 1777751619 | 23.89° C | 42% | 1013.8 hPa | 0 mm | - | 589 W/m² | - |
| 1777751316 | 24.44° C | 39% | 1014.2 hPa | 0 mm | - | 581 W/m² | - |
* Rain latest hour (hover to see other rain measurements)
** Current wind speed in m/s (hover to see current wind gust speed)